Regional Weather Roundup
Issued by NWS

Home | Current Version | Previous Version | Graphics & Text | Print | Product List | Glossary On
Versions: 1 2 3 4 5 6 7 8 9 10 11 12 13 14 15 16 17 18 19 20 21 22 23 24 25 26 27 28 29 30 31 32 33 34 35 36 37 38 39 40 41 42 43 44 45 46 47 48 49 50
215
ASUS43 KLSX 101457
RWRMO

WEATHER SUMMARY FOR MISSOURI
NATIONAL WEATHER SERVICE SPRINGFIELD MO
900 AM CST SAT DEC 10 2016

NOTE: "FAIR" INDICATES FEW OR NO CLOUDS BELOW 12,000 FEET WITH NO
       SIGNIFICANT WEATHER AND/OR OBSTRUCTIONS TO VISIBILITY.
       CURRENT SKY AND/OR WEATHER CONDITIONS ARE NOT AVAILABLE FOR
       CHILLICOTHE AND FARMINGTON.

MOZ001>031-035>038-043-044-053-054-101600-
...NORTHERN AND WESTERN MISSOURI...

CITY           SKY/WX    TMP DP  RH WIND       PRES   REMARKS
KANSAS CTY INT CLOUDY    27  14  58 SE9       30.40F WCI  18
LEE`S SUMMIT   CLOUDY    28  17  63 SE10      30.42S WCI  19
ST JOSEPH      CLOUDY    27  14  58 SE6       30.42F WCI  20
CHILLICOTHE      N/A     26  13  57 SE7       30.46F WCI  18

$$
MOZ066>068-077>081-088>096-101>105-101600-
...SOUTHWEST MISSOURI...

CITY           SKY/WX    TMP DP  RH WIND       PRES   REMARKS
SPRINGFIELD    CLOUDY    31  17  56 SE13      30.42F WCI  21
JOPLIN         CLOUDY    35  17  47 S6        30.43S
BRANSON        CLOUDY    30  19  64 SE7       30.46S WCI  23

$$
MOZ032>034-039>042-045>050-055>058-069>072-101600-
...CENTRAL MISSOURI...

CITY           SKY/WX    TMP DP  RH WIND       PRES   REMARKS
COLUMBIA       NOT AVBL
JEFFERSON CITY CLOUDY    27  14  58 SE5       30.52S WCI  22
ROLLA          CLOUDY    25  14  63 SE8       30.47F WCI  16
SEDALIA        CLOUDY    29  16  58 SE9       30.46F WCI  20

$$
MOZ051-052-059>065-101600-
...EAST CENTRAL MISSOURI...

CITY           SKY/WX    TMP DP  RH WIND       PRES   REMARKS
ST LOUIS INTL  CLOUDY    29  14  53 SE6       30.56F WCI  23

$$
MOZ072>076-082>087-097>100-106>115-101600-
...SOUTH CENTRAL AND SOUTHEAST MISSOURI...

CITY           SKY/WX    TMP DP  RH WIND       PRES   REMARKS
CAPE GIRARDEAU SUNNY     25  21  85 CALM      30.61S
POPLAR BLUFF   SUNNY     28  25  88 CALM      30.59F
WEST PLAINS    CLOUDY    24  18  77 S5        30.51R WCI  18

$$



USA.gov is the U.S. government's official web portal to all federal, state and local government web resources and services.